ARIANE 40 R/B (21610 NORAD) Tracking and Keplerian Element Data

This shows tracking and keplerian element data for the satellite.

Feedback or suggestion? Click here.




ElementValue
Catalog21610
NameARIANE 40 R/B
Epoch Orbit70556
Epoch Day12.79496675
Epoch Year2024
RAAN79.0856
Inclination98.3127
Eccentricity0.0002126
Argument of Perigee307.0153
Mean Anonmoly53.0842
Mean Motion14.41646049
Decay Rate6.28E-06
L11 21610U 91050F 24012.79496675 .00000628 00000+0 20598-3 0 9999
L22 21610 98.3127 79.0856 0002126 307.0153 53.0842 14.41646049705561



Live tracking and technical data element details for ARIANE 40 R/B (NORAD 21610). ARIANE 40 R/B can be tracked NOW for your location showing map with azimuth and elevation plus other details from your city location.







IsCatalogInMostPopularTable: catalog: 21610, numindb: 508
Update: records affected: 1



GetName: 21610 ARIANE 40 R/B

Hit Count: updated at: Sun, 14 Apr 2024 23:13:44 GMT